QPF
0.08 0.09 0.10 0.11 0.10 0.14 0.11 0.08 0.05 0.03 0.03 0.01 0.01 0.01 0.02 0.03 0.03 0.03 0.03 0.02 0.01 0.02 0.03 0.03 0.03 0.04 0.04 0.05 0.04 0.04 0.04 0.03 0.02 0.03 0.02 0.02 0.02 0.03 0.03 0.03 0.03 0.03 0.03
0.08 0.09 0.09 0.09 0.09 0.10 0.09 0.07 0.05 0.05 0.04 0.03 0.02 0.02 0.02 0.03 0.03 0.04 0.04 0.03 0.01 0.01 0.01 0.02 0.03 0.05 0.06 0.04 0.04 0.04 0.04 0.03 0.03 0.03 0.02 0.03 0.03 0.04 0.03 0.02 0.03 0.04 0.03
0.09 0.11 0.11 0.09 0.07 0.06 0.08 0.07 0.06 0.06 0.05 0.05 0.04 0.05 0.07 0.05 0.03 0.05 0.06 0.07 0.04 0.02 0.01 0.01 0.02 0.04 0.05 0.05 0.04 0.03 0.03 0.03 0.03 0.03 0.03 0.03 0.02 0.02 0.02 0.02 0.02 0.03 0.02
0.09 0.12 0.10 0.09 0.08 0.06 0.08 0.08 0.08 0.06 0.07 0.06 0.07 0.07 0.09 0.08 0.04 0.04 0.04 0.06 0.05 0.03 0.02 0.01 0.02 0.02 0.05 0.05 0.04 0.03 0.03 0.02 0.02 0.02 0.02 0.03 0.02 0.02 0.02 0.02 0.01 0.02 0.02
0.07 0.09 0.09 0.08 0.06 0.07 0.07 0.07 0.10 0.08 0.09 0.08 0.05 0.06 0.04 0.05 0.05 0.04 0.03 0.05 0.05 0.04 0.03 0.03 0.03 0.03 0.03 0.04 0.04 0.04 0.03 0.02 0.01 0.02 0.03 0.03 0.02 0.02 0.02 0.01 0.01 0.01 0.02
0.04 0.07 0.08 0.07 0.07 0.10 0.11 0.09 0.10 0.09 0.09 0.08 0.04 0.04 0.04 0.04 0.06 0.05 0.04 0.04 0.05 0.03 0.03 0.05 0.04 0.02 0.03 0.03 0.03 0.05 0.05 0.03 0.02 0.03 0.03 0.03 0.03 0.02 0.01 0.01 0.01 0.01 0.02
0.04 0.07 0.06 0.10 0.09 0.11 0.09 0.08 0.11 0.10 0.09 0.07 0.10 0.09 0.06 0.05 0.06 0.07 0.06 0.06 0.05 0.05 0.03 0.05 0.06 0.06 0.05 0.03 0.03 0.03 0.04 0.04 0.03 0.04 0.03 0.03 0.03 0.03 0.02 0.01 0.01 0.01 0.01
0.02 0.04 0.07 0.07 0.08 0.09 0.08 0.08 0.10 0.09 0.09 0.09 0.12 0.15 0.15 0.15 0.11 0.07 0.09 0.09 0.06 0.06 0.05 0.05 0.07 0.10 0.09 0.09 0.06 0.03 0.03 0.04 0.03 0.03 0.04 0.04 0.04 0.03 0.03 0.02 0.02 0.01 0.01
0.03 0.03 0.04 0.05 0.08 0.08 0.08 0.09 0.09 0.11 0.13 0.12 0.12 0.15 0.21 0.22 0.18 0.12 0.10 0.10 0.08 0.08 0.07 0.06 0.08 0.10 0.10 0.10 0.07 0.03 0.02 0.02 0.02 0.03 0.05 0.04 0.04 0.04 0.04 0.04 0.03 0.02 0.01
0.04 0.04 0.06 0.08 0.08 0.08 0.09 0.08 0.11 0.13 0.13 0.13 0.13 0.12 0.16 0.19 0.18 0.21 0.17 0.10 0.08 0.10 0.08 0.06 0.07 0.10 0.13 0.14 0.10 0.05 0.04 0.04 0.03 0.04 0.06 0.05 0.05 0.05 0.05 0.05 0.04 0.03 0.02
0.08 0.06 0.08 0.11 0.11 0.09 0.10 0.10 0.10 0.10 0.11 0.12 0.14 0.13 0.16 0.16 0.14 0.18 0.18 0.15 0.12 0.09 0.09 0.08 0.08 0.09 0.10 0.12 0.11 0.06 0.05 0.05 0.04 0.03 0.04 0.04 0.04 0.05 0.05 0.07 0.07 0.07 0.06
0.10 0.10 0.14 0.19 0.14 0.12 0.11 0.12 0.09 0.09 0.09 0.11 0.12 0.11 0.12 0.14 0.15 0.17 0.17 0.15 0.14 0.11 0.10 0.08 0.07 0.07 0.09 0.10 0.08 0.05 0.04 0.04 0.04 0.04 0.02 0.02 0.02 0.03 0.04 0.05 0.07 0.09 0.09
0.10 0.09 0.11 0.14 0.12 0.12 0.10 0.11 0.10 0.09 0.09 0.10 0.09 0.08 0.09 0.08 0.10 0.12 0.12 0.11 0.10 0.09 0.08 0.07 0.06 0.06 0.06 0.07 0.06 0.05 0.05 0.04 0.03 0.03 0.02 0.01 0.01 0.01 0.03 0.04 0.07 0.07 0.06
0.08 0.10 0.12 0.12 0.11 0.11 0.10 0.11 0.09 0.08 0.07 0.06 0.06 0.10 0.09 0.05 0.07 0.09 0.10 0.12 0.12 0.09 0.09 0.09 0.06 0.05 0.06 0.07 0.07 0.06 0.04 0.04 0.03 0.03 0.03 0.02 0.02 0.02 0.02 0.03 0.04 0.05 0.05
0.08 0.11 0.12 0.12 0.11 0.12 0.11 0.11 0.10 0.07 0.07 0.06 0.06 0.09 0.07 0.06 0.06 0.06 0.08 0.12 0.14 0.13 0.13 0.12 0.10 0.09 0.09 0.11 0.12 0.09 0.07 0.06 0.05 0.04 0.03 0.03 0.02 0.02 0.02 0.02 0.03 0.03 0.04
0.08 0.09 0.09 0.09 0.11 0.12 0.12 0.12 0.10 0.08 0.09 0.09 0.08 0.10 0.08 0.06 0.06 0.06 0.08 0.11 0.12 0.14 0.14 0.12 0.10 0.08 0.10 0.12 0.18 0.18 0.16 0.15 0.14 0.09 0.05 0.04 0.03 0.03 0.04 0.04 0.04 0.05 0.06
0.07 0.08 0.09 0.09 0.10 0.11 0.13 0.14 0.11 0.09 0.09 0.10 0.08 0.08 0.06 0.07 0.10 0.10 0.11 0.11 0.12 0.15 0.15 0.12 0.11 0.09 0.10 0.10 0.13 0.15 0.16 0.18 0.16 0.15 0.11 0.08 0.07 0.05 0.04 0.04 0.04 0.04 0.05
0.06 0.06 0.06 0.08 0.09 0.09 0.11 0.11 0.11 0.11 0.11 0.10 0.09 0.10 0.06 0.08 0.10 0.10 0.11 0.10 0.10 0.12 0.12 0.10 0.09 0.10 0.11 0.12 0.14 0.16 0.13 0.14 0.14 0.16 0.17 0.14 0.11 0.10 0.08 0.06 0.05 0.05 0.04
0.07 0.05 0.05 0.07 0.08 0.09 0.10 0.09 0.08 0.09 0.10 0.11 0.10 0.08 0.06 0.08 0.08 0.07 0.09 0.09 0.09 0.10 0.12 0.09 0.08 0.10 0.13 0.15 0.17 0.16 0.14 0.15 0.11 0.12 0.16 0.14 0.13 0.13 0.12 0.10 0.08 0.06 0.04
0.08 0.08 0.07 0.08 0.07 0.08 0.09 0.08 0.07 0.08 0.10 0.10 0.09 0.09 0.07 0.07 0.07 0.08 0.08 0.06 0.07 0.08 0.10 0.09 0.09 0.10 0.12 0.14 0.15 0.15 0.15 0.16 0.13 0.10 0.13 0.15 0.15 0.13 0.11 0.09 0.07 0.05 0.05
0.07 0.09 0.09 0.10 0.10 0.09 0.07 0.07 0.08 0.07 0.09 0.09 0.09 0.08 0.06 0.06 0.07 0.06 0.04 0.05 0.06 0.07 0.07 0.07 0.07 0.09 0.09 0.12 0.11 0.12 0.14 0.14 0.13 0.11 0.13 0.13 0.13 0.10 0.08 0.07 0.06 0.05 0.06
0.07 0.07 0.09 0.11 0.08 0.05 0.05 0.05 0.05 0.06 0.05 0.06 0.07 0.06 0.05 0.05 0.05 0.04 0.02 0.03 0.06 0.07 0.06 0.07 0.07 0.07 0.06 0.09 0.10 0.09 0.11 0.12 0.11 0.11 0.12 0.12 0.11 0.10 0.08 0.06 0.06 0.06 0.07
0.05 0.05 0.06 0.05 0.05 0.04 0.04 0.02 0.02 0.04 0.05 0.05 0.06 0.06 0.04 0.03 0.05 0.04 0.03 0.03 0.04 0.04 0.05 0.05 0.05 0.05 0.05 0.07 0.07 0.08 0.09 0.09 0.09 0.09 0.10 0.09 0.08 0.07 0.06 0.06 0.07 0.07 0.07
0.05 0.05 0.05 0.05 0.05 0.04 0.05 0.03 0.02 0.03 0.05 0.05 0.05 0.04 0.04 0.04 0.04 0.05 0.06 0.06 0.05 0.04 0.04 0.03 0.03 0.03 0.05 0.06 0.06 0.05 0.07 0.08 0.08 0.08 0.08 0.08 0.06 0.06 0.06 0.08 0.09 0.08 0.08
0.07 0.07 0.06 0.05 0.04 0.03 0.03 0.03 0.02 0.04 0.04 0.04 0.05 0.03 0.03 0.03 0.04 0.03 0.05 0.06 0.05 0.04 0.02 0.02 0.01 0.01 0.02 0.02 0.03 0.04 0.06 0.06 0.06 0.06 0.05 0.06 0.06 0.07 0.09 0.11 0.10 0.09 0.07
0.06 0.06 0.06 0.04 0.03 0.03 0.03 0.02 0.02 0.03 0.04 0.05 0.05 0.04 0.03 0.03 0.03 0.02 0.04 0.05 0.04 0.03 0.02 0.03 0.02 0.02 0.02 0.01 0.01 0.02 0.03 0.05 0.06 0.06 0.05 0.06 0.07 0.08 0.10 0.12 0.12 0.14 0.13
MSLP
1015.75 1015.80 1015.72 1015.56 1015.36 1015.18 1015.04 1014.98 1014.98 1015.03 1015.08 1015.11 1015.11 1015.08 1015.05 1015.04 1015.08 1015.21 1015.43 1015.74 1016.11 1016.52 1016.94 1017.34 1017.72 1018.08 1018.40 1018.72 1019.02 1019.31 1019.58 1019.84 1020.06 1020.26 1020.44 1020.61 1020.77 1020.96 1021.15 1021.37 1021.59 1021.81 1022.02
1015.74 1015.74 1015.62 1015.43 1015.22 1015.04 1014.90 1014.83 1014.83 1014.86 1014.90 1014.91 1014.90 1014.86 1014.81 1014.78 1014.81 1014.91 1015.10 1015.38 1015.72 1016.10 1016.51 1016.92 1017.32 1017.70 1018.07 1018.43 1018.78 1019.11 1019.42 1019.70 1019.95 1020.16 1020.34 1020.52 1020.69 1020.87 1021.06 1021.27 1021.49 1021.70 1021.90
1015.86 1015.82 1015.68 1015.48 1015.28 1015.10 1014.97 1014.90 1014.87 1014.87 1014.87 1014.84 1014.78 1014.70 1014.62 1014.56 1014.56 1014.64 1014.80 1015.05 1015.36 1015.71 1016.10 1016.50 1016.91 1017.31 1017.71 1018.10 1018.49 1018.86 1019.21 1019.52 1019.78 1020.01 1020.20 1020.37 1020.54 1020.70 1020.88 1021.08 1021.28 1021.49 1021.69
1016.12 1016.04 1015.89 1015.71 1015.52 1015.37 1015.25 1015.16 1015.10 1015.04 1014.97 1014.86 1014.73 1014.60 1014.47 1014.39 1014.37 1014.44 1014.59 1014.82 1015.11 1015.45 1015.82 1016.20 1016.59 1016.99 1017.40 1017.81 1018.22 1018.61 1018.98 1019.30 1019.58 1019.81 1019.99 1020.14 1020.28 1020.42 1020.57 1020.74 1020.93 1021.13 1021.34
1016.49 1016.38 1016.23 1016.07 1015.92 1015.79 1015.68 1015.58 1015.46 1015.33 1015.16 1014.96 1014.75 1014.55 1014.39 1014.29 1014.29 1014.37 1014.54 1014.79 1015.09 1015.42 1015.77 1016.13 1016.49 1016.87 1017.25 1017.64 1018.04 1018.42 1018.79 1019.10 1019.37 1019.57 1019.72 1019.84 1019.93 1020.02 1020.12 1020.25 1020.41 1020.60 1020.82
1016.93 1016.80 1016.66 1016.53 1016.42 1016.31 1016.20 1016.07 1015.90 1015.68 1015.41 1015.12 1014.83 1014.58 1014.41 1014.33 1014.36 1014.50 1014.74 1015.03 1015.37 1015.71 1016.05 1016.38 1016.70 1017.03 1017.36 1017.70 1018.05 1018.39 1018.71 1018.99 1019.21 1019.36 1019.46 1019.50 1019.52 1019.54 1019.57 1019.64 1019.76 1019.93 1020.15
1017.40 1017.25 1017.13 1017.04 1016.96 1016.87 1016.76 1016.60 1016.37 1016.07 1015.72 1015.35 1015.01 1014.73 1014.57 1014.54 1014.65 1014.89 1015.21 1015.59 1015.99 1016.36 1016.70 1017.00 1017.28 1017.53 1017.79 1018.05 1018.32 1018.58 1018.83 1019.03 1019.18 1019.26 1019.27 1019.23 1019.16 1019.08 1019.02 1019.01 1019.07 1019.20 1019.40
1017.86 1017.72 1017.61 1017.54 1017.49 1017.43 1017.32 1017.13 1016.86 1016.50 1016.09 1015.67 1015.30 1015.04 1014.92 1014.97 1015.19 1015.54 1015.98 1016.46 1016.93 1017.34 1017.69 1017.97 1018.18 1018.36 1018.53 1018.69 1018.87 1019.03 1019.18 1019.30 1019.35 1019.33 1019.25 1019.11 1018.93 1018.75 1018.59 1018.49 1018.46 1018.53 1018.69
1018.31 1018.16 1018.07 1018.03 1018.00 1017.96 1017.85 1017.66 1017.36 1016.97 1016.53 1016.10 1015.74 1015.52 1015.48 1015.62 1015.95 1016.42 1016.98 1017.56 1018.10 1018.55 1018.91 1019.16 1019.33 1019.44 1019.51 1019.58 1019.65 1019.72 1019.77 1019.79 1019.75 1019.64 1019.46 1019.22 1018.95 1018.66 1018.41 1018.20 1018.08 1018.06 1018.14
1018.74 1018.60 1018.52 1018.50 1018.49 1018.46 1018.37 1018.18 1017.89 1017.50 1017.07 1016.66 1016.35 1016.18 1016.21 1016.45 1016.87 1017.44 1018.09 1018.74 1019.34 1019.82 1020.18 1020.42 1020.54 1020.59 1020.59 1020.58 1020.56 1020.54 1020.51 1020.45 1020.34 1020.16 1019.91 1019.60 1019.25 1018.89 1018.54 1018.25 1018.03 1017.91 1017.90
1019.18 1019.05 1018.98 1018.97 1018.98 1018.97 1018.89 1018.72 1018.45 1018.09 1017.70 1017.34 1017.08 1016.97 1017.07 1017.37 1017.85 1018.48 1019.17 1019.86 1020.47 1020.96 1021.32 1021.53 1021.63 1021.63 1021.59 1021.53 1021.46 1021.38 1021.30 1021.19 1021.03 1020.82 1020.54 1020.20 1019.82 1019.41 1019.02 1018.66 1018.36 1018.15 1018.02
1019.65 1019.53 1019.47 1019.46 1019.48 1019.48 1019.43 1019.29 1019.06 1018.75 1018.41 1018.11 1017.90 1017.84 1017.97 1018.29 1018.79 1019.41 1020.09 1020.76 1021.36 1021.83 1022.17 1022.37 1022.45 1022.44 1022.38 1022.30 1022.21 1022.12 1022.02 1021.90 1021.74 1021.53 1021.26 1020.94 1020.57 1020.17 1019.77 1019.39 1019.05 1018.76 1018.53
1020.17 1020.05 1020.00 1019.99 1020.01 1020.03 1020.00 1019.90 1019.71 1019.46 1019.18 1018.93 1018.75 1018.71 1018.84 1019.14 1019.59 1020.16 1020.78 1021.38 1021.92 1022.35 1022.66 1022.85 1022.93 1022.93 1022.88 1022.81 1022.74 1022.66 1022.58 1022.48 1022.35 1022.19 1021.97 1021.71 1021.40 1021.07 1020.71 1020.35 1020.00 1019.67 1019.37
1020.74 1020.64 1020.58 1020.57 1020.60 1020.62 1020.62 1020.55 1020.41 1020.21 1019.98 1019.77 1019.61 1019.57 1019.66 1019.89 1020.25 1020.72 1021.22 1021.73 1022.19 1022.56 1022.84 1023.01 1023.10 1023.13 1023.11 1023.08 1023.03 1022.99 1022.94 1022.89 1022.81 1022.71 1022.58 1022.40 1022.20 1021.96 1021.69 1021.40 1021.08 1020.75 1020.41
1021.38 1021.28 1021.23 1021.22 1021.24 1021.28 1021.29 1021.25 1021.15 1021.00 1020.81 1020.62 1020.46 1020.39 1020.42 1020.56 1020.80 1021.13 1021.51 1021.89 1022.25 1022.56 1022.80 1022.97 1023.08 1023.13 1023.16 1023.16 1023.16 1023.15 1023.14 1023.13 1023.10 1023.07 1023.02 1022.95 1022.86 1022.74 1022.58 1022.38 1022.14 1021.85 1021.51
1022.07 1021.98 1021.93 1021.93 1021.95 1021.99 1022.02 1022.01 1021.94 1021.83 1021.66 1021.49 1021.32 1021.21 1021.16 1021.20 1021.32 1021.51 1021.76 1022.02 1022.29 1022.53 1022.74 1022.90 1023.02 1023.11 1023.17 1023.20 1023.23 1023.24 1023.25 1023.26 1023.27 1023.28 1023.30 1023.32 1023.33 1023.32 1023.28 1023.19 1023.04 1022.82 1022.51
1022.80 1022.73 1022.69 1022.69 1022.73 1022.77 1022.82 1022.83 1022.79 1022.70 1022.56 1022.39 1022.21 1022.05 1021.94 1021.89 1021.90 1021.98 1022.11 1022.28 1022.46 1022.64 1022.82 1022.98 1023.11 1023.21 1023.29 1023.34 1023.36 1023.37 1023.37 1023.37 1023.38 1023.40 1023.45 1023.52 1023.61 1023.69 1023.74 1023.75 1023.69 1023.54 1023.30
1023.54 1023.49 1023.48 1023.49 1023.54 1023.60 1023.66 1023.69 1023.67 1023.61 1023.49 1023.33 1023.15 1022.97 1022.82 1022.70 1022.64 1022.63 1022.67 1022.76 1022.88 1023.02 1023.17 1023.32 1023.45 1023.55 1023.62 1023.65 1023.66 1023.63 1023.59 1023.54 1023.51 1023.52 1023.56 1023.64 1023.75 1023.87 1023.99 1024.06 1024.07 1023.98 1023.80
1024.26 1024.24 1024.25 1024.29 1024.36 1024.44 1024.51 1024.56 1024.57 1024.53 1024.43 1024.30 1024.13 1023.95 1023.78 1023.64 1023.53 1023.47 1023.47 1023.50 1023.58 1023.69 1023.81 1023.94 1024.05 1024.13 1024.18 1024.18 1024.13 1024.05 1023.94 1023.83 1023.74 1023.69 1023.68 1023.73 1023.82 1023.94 1024.07 1024.16 1024.20 1024.15 1024.02
1024.93 1024.95 1024.99 1025.05 1025.14 1025.24 1025.33 1025.40 1025.43 1025.42 1025.36 1025.25 1025.11 1024.96 1024.81 1024.67 1024.56 1024.48 1024.45 1024.46 1024.51 1024.59 1024.68 1024.78 1024.86 1024.91 1024.91 1024.86 1024.76 1024.61 1024.43 1024.25 1024.08 1023.95 1023.88 1023.86 1023.90 1023.97 1024.06 1024.13 1024.16 1024.12 1024.00
1025.52 1025.57 1025.64 1025.73 1025.84 1025.96 1026.06 1026.15 1026.21 1026.22 1026.19 1026.13 1026.04 1025.93 1025.82 1025.71 1025.62 1025.56 1025.53 1025.52 1025.55 1025.59 1025.65 1025.71 1025.75 1025.75 1025.70 1025.60 1025.44 1025.24 1025.00 1024.75 1024.51 1024.31 1024.16 1024.07 1024.03 1024.03 1024.05 1024.06 1024.04 1023.97 1023.83
1026.01 1026.09 1026.18 1026.29 1026.42 1026.54 1026.66 1026.76 1026.84 1026.88 1026.89 1026.88 1026.84 1026.79 1026.73 1026.68 1026.63 1026.58 1026.56 1026.55 1026.55 1026.56 1026.57 1026.58 1026.57 1026.52 1026.43 1026.29 1026.09 1025.84 1025.57 1025.28 1024.99 1024.74 1024.52 1024.36 1024.24 1024.15 1024.09 1024.02 1023.92 1023.79 1023.61
1026.38 1026.48 1026.59 1026.72 1026.85 1026.98 1027.11 1027.21 1027.30 1027.36 1027.41 1027.45 1027.47 1027.48 1027.48 1027.48 1027.47 1027.46 1027.44 1027.41 1027.39 1027.36 1027.32 1027.28 1027.21 1027.12 1026.99 1026.82 1026.60 1026.34 1026.06 1025.76 1025.46 1025.18 1024.93 1024.71 1024.52 1024.36 1024.21 1024.05 1023.87 1023.66 1023.42
1026.64 1026.76 1026.88 1027.02 1027.15 1027.28 1027.40 1027.50 1027.60 1027.68 1027.76 1027.83 1027.91 1027.97 1028.03 1028.08 1028.10 1028.11 1028.09 1028.05 1027.99 1027.92 1027.83 1027.73 1027.62 1027.49 1027.33 1027.15 1026.93 1026.69 1026.42 1026.15 1025.86 1025.59 1025.32 1025.08 1024.85 1024.63 1024.41 1024.17 1023.92 1023.63 1023.32
1026.81 1026.94 1027.08 1027.21 1027.35 1027.47 1027.58 1027.68 1027.78 1027.87 1027.97 1028.07 1028.18 1028.29 1028.39 1028.47 1028.52 1028.54 1028.51 1028.45 1028.36 1028.24 1028.10 1027.95 1027.80 1027.64 1027.47 1027.29 1027.09 1026.88 1026.65 1026.41 1026.17 1025.92 1025.67 1025.43 1025.18 1024.93 1024.66 1024.37 1024.05 1023.70 1023.33
1026.91 1027.06 1027.21 1027.36 1027.49 1027.61 1027.72 1027.81 1027.90 1028.00 1028.11 1028.23 1028.36 1028.49 1028.61 1028.71 1028.77 1028.78 1028.74 1028.65 1028.52 1028.36 1028.19 1028.00 1027.82 1027.64 1027.46 1027.29 1027.12 1026.95 1026.76 1026.57 1026.37 1026.15 1025.94 1025.71 1025.46 1025.20 1024.91 1024.59 1024.23 1023.85 1023.43
Thickness
5769 5768 5766 5765 5764 5762 5761 5761 5761 5761 5761 5761 5760 5760 5759 5758 5755 5753 5749 5746 5744 5742 5740 5738 5736 5734 5732 5730 5729 5727 5725 5723 5722 5720 5719 5718 5717 5716 5714 5713 5712 5711 5710
5769 5768 5766 5764 5763 5763 5762 5762 5761 5761 5761 5760 5759 5759 5758 5758 5755 5753 5750 5747 5744 5742 5740 5739 5737 5735 5733 5731 5729 5727 5725 5724 5722 5721 5719 5718 5717 5715 5714 5713 5712 5710 5709
5769 5767 5766 5764 5763 5763 5762 5761 5761 5761 5760 5759 5758 5758 5758 5757 5756 5754 5752 5749 5746 5743 5742 5740 5738 5736 5734 5732 5730 5728 5726 5724 5723 5721 5720 5718 5717 5716 5714 5713 5712 5710 5709
5769 5767 5765 5764 5763 5763 5762 5761 5760 5759 5757 5757 5756 5757 5757 5757 5756 5756 5754 5752 5749 5747 5744 5742 5740 5737 5735 5733 5731 5729 5727 5725 5724 5722 5720 5718 5717 5716 5714 5713 5711 5710 5709
5769 5767 5766 5765 5764 5763 5762 5762 5759 5758 5755 5754 5755 5757 5757 5757 5757 5757 5756 5754 5752 5750 5747 5744 5741 5739 5736 5735 5732 5730 5728 5726 5724 5723 5721 5719 5717 5716 5714 5713 5711 5710 5709
5770 5768 5766 5765 5764 5762 5761 5760 5757 5757 5755 5754 5756 5757 5757 5758 5758 5758 5757 5756 5754 5752 5749 5747 5743 5740 5737 5736 5734 5731 5729 5727 5725 5723 5722 5720 5718 5716 5715 5713 5711 5710 5709
5770 5768 5767 5765 5763 5761 5760 5759 5757 5755 5754 5756 5752 5750 5754 5758 5758 5757 5757 5756 5755 5753 5751 5748 5745 5742 5739 5736 5734 5732 5730 5728 5726 5724 5723 5721 5719 5717 5715 5713 5712 5710 5709
5771 5770 5766 5764 5763 5761 5760 5759 5757 5754 5754 5755 5750 5744 5741 5745 5751 5757 5756 5754 5754 5753 5751 5749 5746 5743 5741 5738 5735 5733 5731 5729 5727 5725 5723 5721 5720 5718 5716 5715 5713 5711 5709
5772 5769 5768 5765 5763 5762 5759 5758 5757 5754 5750 5754 5754 5746 5738 5735 5741 5749 5752 5752 5752 5751 5751 5749 5746 5744 5741 5738 5736 5733 5731 5729 5727 5726 5724 5722 5721 5719 5717 5715 5713 5711 5710
5773 5771 5768 5766 5763 5762 5760 5759 5759 5756 5753 5750 5752 5753 5750 5747 5739 5737 5744 5749 5750 5748 5749 5749 5747 5744 5741 5738 5736 5734 5732 5729 5727 5726 5724 5722 5721 5719 5717 5715 5713 5712 5710
5773 5771 5768 5765 5763 5762 5761 5759 5758 5757 5755 5752 5751 5751 5751 5750 5748 5739 5735 5740 5743 5746 5746 5746 5746 5743 5741 5738 5736 5734 5732 5729 5727 5725 5723 5721 5720 5718 5716 5715 5713 5711 5710
5772 5770 5768 5765 5763 5762 5761 5759 5757 5756 5755 5753 5752 5750 5748 5745 5744 5741 5736 5735 5735 5740 5743 5744 5744 5742 5740 5738 5736 5735 5732 5729 5726 5724 5722 5720 5719 5717 5715 5713 5711 5710 5708
5770 5769 5769 5766 5764 5763 5761 5759 5756 5755 5754 5752 5751 5750 5750 5749 5748 5745 5739 5735 5734 5737 5739 5741 5742 5741 5739 5737 5735 5733 5731 5729 5726 5723 5721 5719 5717 5715 5713 5711 5709 5708 5706
5772 5771 5769 5767 5765 5762 5760 5758 5756 5754 5753 5752 5751 5750 5749 5749 5749 5747 5742 5736 5730 5731 5732 5734 5739 5739 5737 5736 5733 5731 5728 5726 5724 5722 5720 5717 5715 5713 5710 5708 5706 5705 5703
5773 5772 5769 5766 5764 5761 5758 5756 5754 5752 5752 5750 5749 5749 5747 5747 5747 5746 5744 5740 5731 5724 5723 5728 5731 5734 5734 5731 5729 5726 5725 5723 5720 5718 5716 5714 5712 5709 5707 5704 5702 5700 5699
5772 5770 5767 5765 5762 5759 5756 5754 5752 5751 5749 5748 5747 5746 5745 5745 5745 5744 5743 5741 5737 5729 5722 5725 5726 5729 5730 5729 5725 5722 5720 5718 5716 5714 5712 5710 5708 5705 5703 5700 5698 5695 5693
5770 5767 5765 5762 5759 5756 5754 5751 5750 5748 5746 5745 5744 5744 5742 5743 5741 5740 5740 5738 5734 5730 5721 5722 5725 5726 5725 5723 5721 5719 5716 5714 5711 5709 5707 5705 5702 5700 5697 5695 5692 5690 5687
5767 5765 5762 5759 5757 5754 5751 5749 5746 5745 5742 5740 5740 5739 5739 5739 5737 5735 5734 5732 5730 5728 5723 5718 5719 5720 5719 5718 5717 5715 5713 5710 5707 5705 5702 5700 5697 5693 5691 5688 5686 5684 5681
5763 5761 5759 5756 5753 5750 5748 5746 5743 5741 5739 5737 5736 5734 5734 5733 5731 5731 5730 5728 5726 5726 5722 5717 5715 5715 5714 5713 5711 5711 5709 5706 5704 5701 5698 5695 5692 5688 5684 5682 5679 5677 5675
5759 5757 5755 5752 5749 5747 5745 5742 5741 5738 5736 5734 5732 5730 5729 5727 5726 5725 5724 5723 5722 5719 5717 5713 5710 5708 5707 5706 5705 5702 5699 5699 5697 5695 5692 5689 5685 5681 5677 5675 5672 5670 5667
5756 5753 5750 5747 5745 5743 5740 5738 5736 5734 5731 5729 5727 5725 5724 5722 5721 5720 5719 5717 5715 5713 5710 5707 5703 5700 5698 5696 5695 5695 5692 5691 5689 5688 5684 5682 5678 5673 5669 5666 5664 5661 5658
5751 5748 5745 5741 5738 5736 5733 5732 5730 5729 5726 5723 5721 5719 5719 5716 5715 5714 5712 5710 5709 5706 5703 5699 5696 5692 5690 5689 5689 5688 5684 5681 5678 5679 5676 5673 5670 5666 5662 5658 5656 5653 5650
5746 5742 5739 5735 5732 5728 5727 5726 5724 5723 5721 5718 5715 5713 5713 5711 5709 5707 5706 5704 5702 5700 5697 5693 5689 5685 5683 5682 5681 5680 5678 5675 5672 5672 5669 5663 5661 5657 5654 5651 5648 5645 5642
5740 5736 5733 5730 5726 5723 5720 5719 5717 5717 5715 5712 5710 5707 5704 5702 5701 5699 5698 5696 5694 5691 5690 5687 5684 5680 5678 5676 5674 5673 5671 5670 5667 5664 5662 5655 5651 5648 5646 5642 5640 5636 5633
5735 5731 5728 5724 5720 5716 5714 5713 5711 5711 5708 5705 5702 5699 5697 5694 5693 5692 5690 5687 5684 5682 5681 5679 5676 5673 5671 5669 5666 5665 5662 5659 5655 5652 5650 5646 5642 5638 5635 5632 5629 5626 5624
5729 5726 5722 5719 5716 5712 5708 5707 5705 5705 5701 5698 5695 5692 5689 5686 5684 5683 5682 5679 5674 5672 5671 5670 5667 5665 5663 5660 5658 5655 5652 5649 5645 5641 5639 5636 5633 5629 5624 5621 5618 5615 5612